Date String (YYYY-MM-DD hh:mm:ss) UTC,Instrument flags,Ambient pressure (hPa),Sample flow (lpm),Bypass flow (lpm),Sample temperature (°C),Ambient temperature (°C),ASC tube jacket temperature (°C),LED temperature (°C),Box temperature (°C),Sample RH (%),Span deviation,Mass concentration (μg/m³),Mass concentration (μg/m³),Mass concentration (μg/m³)
DateTimeUTC,F1_M11,P_M11,Q1_M11,Q2_M11,T1_M11,T2_M11,T3_M11,T4_M11,T5_M11,U1_M11,ZSPAN_M11,X0_M11,X2_M11,X1_M11
2023-05-11 06:00:00,,0826.9,4.99,0.00,26.1,24.3,00.0,34.6,27.8,30.0,0000.0,0007.53,0003.54,0002.29
2023-05-11 06:01:00,,0826.9,5.00,0.00,26.1,24.3,00.0,34.6,27.8,30.1,0000.0,0007.46,0003.51,0002.28
2023-05-11 06:02:00,,0826.9,4.99,0.00,26.1,24.3,00.0,34.6,27.8,30.1,0000.0,0007.34,0003.48,0002.28
2023-05-11 06:03:00,,0826.9,5.00,0.00,26.1,24.3,00.0,34.6,27.8,30.0,0000.0,0007.29,0003.46,0002.26
2023-05-11 06:04:00,,0826.9,5.00,0.00,26.1,24.2,00.0,34.6,27.7,30.0,0000.0,0007.17,0003.39,0002.23
2023-05-11 06:05:00,,0826.9,5.01,0.00,26.1,24.2,00.0,34.6,27.7,30.0,0000.0,0007.25,0003.39,0002.21
2023-05-11 06:06:00,,0826.9,5.01,0.00,26.1,24.2,00.0,34.6,27.7,30.0,0000.0,0006.74,0003.40,0002.22
2023-05-11 06:07:00,,0826.9,4.99,0.00,26.1,24.2,00.0,34.6,27.7,30.0,0000.0,0006.53,0003.36,0002.22
2023-05-11 06:08:00,,0826.9,4.99,0.00,26.1,24.2,00.0,34.6,27.8,30.1,0000.0,0007.31,0003.38,0002.22
2023-05-11 06:09:00,,0827.0,4.99,0.00,26.1,24.3,00.0,34.6,27.8,30.1,0000.0,0007.69,0003.38,0002.22
2023-05-11 06:10:00,,0827.0,5.00,0.00,26.1,24.3,00.0,34.6,27.8,30.1,0000.0,0007.60,0003.34,0002.20
2023-05-11 06:11:00,,0827.0,5.00,0.00,26.1,24.3,00.0,34.6,27.8,30.1,0000.0,0007.50,0003.30,0002.19
2023-05-11 06:12:00,,0827.0,5.00,0.00,26.1,24.3,00.0,34.6,27.8,30.1,0000.0,0007.58,0003.32,0002.19
2023-05-11 06:13:00,,0827.1,5.00,0.00,26.1,24.3,00.0,34.6,27.8,30.2,0000.0,0008.34,0003.36,0002.19
2023-05-11 06:14:00,,0827.1,5.01,0.00,26.1,24.3,00.0,34.6,27.7,30.2,0000.0,0008.49,0003.37,0002.21
2023-05-11 06:15:00,,0827.1,5.00,0.00,26.1,24.3,00.0,34.6,27.7,30.2,0000.0,0008.53,0003.38,0002.24
2023-05-11 06:16:00,,0827.0,4.99,0.00,26.1,24.3,00.0,34.6,27.7,30.3,0000.0,0008.60,0003.41,0002.26
2023-05-11 06:17:00,,0827.1,4.99,0.00,26.0,24.2,00.0,34.5,27.7,30.4,0000.0,0008.57,0003.40,0002.28
2023-05-11 06:18:00,,0827.1,5.00,0.00,26.0,24.2,00.0,34.5,27.7,30.5,0000.0,0008.73,0003.48,0002.31
2023-05-11 06:19:00,,0827.1,5.00,0.00,26.0,24.2,00.0,34.5,27.7,30.5,0000.0,0008.46,0003.54,0002.35
2023-05-11 06:20:00,,0827.1,5.00,0.00,26.0,24.2,00.0,34.5,27.7,30.5,0000.0,0008.17,0003.59,0002.39
2023-05-11 06:21:00,,0827.1,5.00,0.00,26.0,24.2,00.0,34.5,27.7,30.5,0000.0,0008.23,0003.64,0002.42
2023-05-11 06:22:00,,0827.1,5.00,0.00,26.0,24.2,00.0,34.5,27.7,30.6,0000.0,0008.35,0003.70,0002.48
2023-05-11 06:23:00,,0827.2,5.00,0.00,26.0,24.2,00.0,34.5,27.7,30.6,0000.0,0008.32,0003.70,0002.51
2023-05-11 06:24:00,,0827.1,5.01,0.00,26.0,24.2,00.0,34.5,27.7,30.6,0000.0,0007.77,0003.70,0002.55
2023-05-11 06:25:00,,0827.1,5.00,0.00,26.0,24.2,00.0,34.5,27.6,30.6,0000.0,0007.52,0003.75,0002.59
2023-05-11 06:26:00,,0827.1,5.00,0.00,26.0,24.2,00.0,34.5,27.6,30.6,0000.0,0007.56,0003.78,0002.63
2023-05-11 06:27:00,,0827.1,5.00,0.00,26.0,24.2,00.0,34.5,27.6,30.6,0000.0,0007.49,0003.79,0002.65
2023-05-11 06:28:00,,0827.1,5.00,0.00,26.0,24.2,00.0,34.5,27.6,30.7,0000.0,0007.44,0003.78,0002.68
2023-05-11 06:29:00,,0827.2,5.00,0.00,26.0,24.2,00.0,34.5,27.6,30.7,0000.0,0007.52,0003.77,0002.71
2023-05-11 06:30:00,,0827.2,5.00,0.00,26.0,24.2,00.0,34.5,27.6,30.7,0000.0,0007.45,0003.74,0002.73
2023-05-11 06:31:00,,0827.1,5.00,0.00,26.0,24.2,00.0,34.5,27.6,30.7,0000.0,0007.39,0003.74,0002.76
2023-05-11 06:32:00,,0827.2,5.00,0.00,26.0,24.2,00.0,34.5,27.6,30.8,0000.0,0007.29,0003.72,0002.79
2023-05-11 06:33:00,,0827.1,5.00,0.00,26.0,24.2,00.0,34.5,27.6,30.7,0000.0,0007.25,0003.73,0002.81
2023-05-11 06:34:00,,0827.1,5.00,0.00,26.0,24.2,00.0,34.4,27.6,30.8,0000.0,0007.39,0003.78,0002.85
2023-05-11 06:35:00,,0827.2,5.00,0.00,26.0,24.2,00.0,34.4,27.6,30.8,0000.0,0007.50,0003.83,0002.89
2023-05-11 06:36:00,,0827.2,5.00,0.00,26.0,24.2,00.0,34.4,27.6,30.8,0000.0,0007.51,0003.84,0002.92
2023-05-11 06:37:00,,0827.2,5.00,0.00,25.9,24.2,00.0,34.4,27.6,30.8,0000.0,0007.53,0003.87,0002.95
2023-05-11 06:38:00,,0827.2,5.00,0.00,25.9,24.2,00.0,34.4,27.6,30.9,0000.0,0007.56,0003.88,0002.99
2023-05-11 06:39:00,,0827.3,4.99,0.00,25.9,24.1,00.0,34.4,27.6,30.9,0000.0,0007.69,0003.94,0003.03
2023-05-11 06:40:00,,0827.3,5.00,0.00,25.9,24.1,00.0,34.4,27.6,31.0,0000.0,0007.72,0003.99,0003.07
2023-05-11 06:41:00,,0827.3,5.00,0.00,25.9,24.1,00.0,34.4,27.6,31.0,0000.0,0007.68,0004.00,0003.09
2023-05-11 06:42:00,,0827.3,5.00,0.00,25.9,24.1,00.0,34.4,27.6,31.0,0000.0,0007.73,0004.01,0003.11
2023-05-11 06:43:00,,0827.4,5.01,0.00,25.9,24.1,00.0,34.4,27.5,31.1,0000.0,0007.82,0004.04,0003.12
2023-05-11 06:44:00,,0827.3,5.00,0.00,25.9,24.0,00.0,34.4,27.5,31.1,0000.0,0007.88,0004.07,0003.15
2023-05-11 06:45:00,,0827.4,5.00,0.00,25.9,24.0,00.0,34.4,27.5,31.2,0000.0,0007.76,0004.03,0003.17
2023-05-11 06:46:00,,0827.4,5.00,0.00,25.9,24.0,00.0,34.4,27.5,31.3,0000.0,0007.70,0004.01,0003.18
2023-05-11 06:47:00,,0827.4,5.00,0.00,25.8,23.9,00.0,34.4,27.5,31.3,0000.0,0007.71,0004.02,0003.21
2023-05-11 06:48:00,,0827.4,5.00,0.00,25.8,23.9,00.0,34.3,27.5,31.4,0000.0,0007.79,0004.06,0003.25
2023-05-11 06:49:00,,0827.3,5.00,0.00,25.8,23.9,00.0,34.3,27.5,31.5,0000.0,0007.92,0004.14,0003.28
2023-05-11 06:50:00,,0827.4,5.02,0.00,25.8,23.9,00.0,34.3,27.4,31.5,0000.0,0007.95,0004.18,0003.32
2023-05-11 06:51:00,,0827.4,5.01,0.00,25.8,23.9,00.0,34.3,27.4,31.5,0000.0,0008.08,0004.25,0003.36
2023-05-11 06:52:00,,0827.4,5.00,0.00,25.8,23.9,00.0,34.3,27.4,31.7,0000.0,0008.59,0004.35,0003.41
2023-05-11 06:53:00,,0827.4,5.00,0.00,25.8,23.8,00.0,34.3,27.4,31.7,0000.0,0009.05,0004.46,0003.47
2023-05-11 06:54:00,,0827.4,5.00,0.00,25.7,23.8,00.0,34.3,27.4,31.8,0000.0,0009.18,0004.56,0003.55
2023-05-11 06:55:00,,0827.4,5.00,0.00,25.7,23.8,00.0,34.3,27.4,31.8,0001.0,0009.27,0004.65,0003.62
2023-05-11 06:56:00,,0827.4,5.00,0.00,25.7,23.8,00.0,34.3,27.4,31.9,0000.9,0009.50,0004.76,0003.68
2023-05-11 06:57:00,,0827.4,5.01,0.00,25.7,23.8,00.0,34.3,27.4,31.9,0000.4,0009.73,0004.89,0003.74
2023-05-11 06:58:00,,0827.4,5.00,0.00,25.7,23.8,00.0,34.3,27.3,31.9,0000.4,0009.73,0004.94,0003.80
2023-05-11 06:59:00,,0827.4,5.00,0.00,25.7,23.8,00.0,34.2,27.3,32.0,0000.4,0009.94,0005.03,0003.85
